Regional Weather Roundup
Issued by NWS

Home | Current Version | Previous Version | Graphics & Text | Print | Product List | Glossary On
Versions: 1 2 3 4 5 6 7 8 9 10 11 12 13 14 15 16 17 18 19 20 21 22 23 24 25 26 27 28 29 30 31 32 33 34 35 36 37 38 39 40 41 42 43 44 45 46 47 48 49 50
000
ASUS43 KBIS 270602
RWRND

NORTH DAKOTA REGIONAL WEATHER ROUNDUP
NATIONAL WEATHER SERVICE BISMARCK ND
100 AM CDT WED JUL 27 2016

NOTE: "FAIR" INDICATES FEW OR NO CLOUDS BELOW 12,000 FEET WITH NO
SIGNIFICANT WEATHER AND/OR OBSTRUCTIONS TO VISIBILITY.


NDZ001>003-009>011-017-270700-
NORTHWEST NORTH DAKOTA

CITY           SKY/WX    TMP DP  RH WIND       PRES   REMARKS
WILLISTON      CLEAR     65  56  72 N5        30.10R
6HR MIN TEMP:  64; 6HR MAX TEMP:  79;

MINOT          MOCLDY    64  60  87 N6        30.04F
MINOT AFB      CLOUDY    65  61  85 N7        30.04F
$$

NDZ018>021-031>035-040>046-270700-
SOUTHWEST NORTH DAKOTA

CITY           SKY/WX    TMP DP  RH WIND       PRES   REMARKS
BISMARCK       CLEAR     63  61  93 SE6       30.03S
6HR MIN TEMP:  63; 6HR MAX TEMP:  79;

DICKINSON      CLEAR     57  55  93 CALM      30.08R
GARRISON         N/A     61  60  97 N5        30.05F
6HR MIN TEMP:  61; 6HR MAX TEMP:  70; 6HR PCP:  0.02;

HETTINGER ARPT CLOUDY    62  58  86 NE7       30.10R
$$

NDZ004>008-012>016-024-026-027-054-270700-
NORTHEAST NORTH DAKOTA

CITY           SKY/WX    TMP DP  RH WIND       PRES   REMARKS
GRAND FORKS    CLOUDY    68  62  81 CALM      30.02R
GRND FRKS AFB  CLOUDY    66  62  86 CALM      30.03F
DEVILS LAKE    CLOUDY    65  60  84 NE10      30.05F
$$

NDZ022-023-025-028>030-036>039-047>053-270700-
SOUTHEAST NORTH DAKOTA

CITY           SKY/WX    TMP DP  RH WIND       PRES   REMARKS
FARGO          CLOUDY    67  64  90 N5        29.96F
6HR MIN TEMP:  65; 6HR MAX TEMP:  76; 6HR PCP:  1.30;

JAMESTOWN      CLOUDY    64  63  96 N6        30.01R
$$





USA.gov is the U.S. government's official web portal to all federal, state and local government web resources and services.